When you browse on this site, cookies collect data to enhance your experience and personalize the content and advertising you see.
Visit our Privacy Policy to learn more. By continuing to use the site, you agree to this use of cookies and data.
  • In Austria
  • List of Countries
  • For 7 days
  • Water Temperature
  • Weather Map
  • News
  • Weather Widgets
  • user-avatar
    Login

    Hourly Weather Zasadky

    Today, 21 October, Monday

    Time Temperature Precipitation Wind Pressure Humidity
    00:00 +14°C° 0 mm 3 mps 734 mmHg 73%
    01:00 +14°C° 0 mm 3 mps 734 mmHg 73%
    02:00 +15°C° 0 mm 2 mps 734 mmHg 76%
    03:00 +13°C° 0 mm 3 mps 734 mmHg 77%
    04:00 +13°C° 0 mm 3 mps 734 mmHg 78%
    05:00 +13°C° 0 mm 3 mps 734 mmHg 79%
    06:00 +13°C° 0 mm 3 mps 734 mmHg 78%
    07:00 +14°C° 0 mm 3 mps 734 mmHg 77%
    08:00 +14°C° 0 mm 3 mps 735 mmHg 71%
    09:00 +17°C° 0 mm 4 mps 735 mmHg 64%
    10:00 +19°C° 0 mm 5 mps 735 mmHg 57%
    11:00 +21°C° 0 mm 5 mps 735 mmHg 50%
    12:00 +22°C° 0 mm 5 mps 735 mmHg 49%
    13:00 +22°C° 0 mm 5 mps 736 mmHg 48%
    14:00 +23°C° 0 mm 5 mps 736 mmHg 47%
    15:00 +21°C° 0 mm 4 mps 736 mmHg 52%
    16:00 +20°C° 0 mm 3 mps 735 mmHg 58%
    17:00 +18°C° 0 mm 2 mps 735 mmHg 64%
    18:00 +17°C° 0 mm 2 mps 735 mmHg 67%
    19:00 +16°C° 0 mm 1 mps 736 mmHg 70%
    20:00 +15°C° 0 mm 1 mps 736 mmHg 73%
    21:00 +15°C° 0 mm 1 mps 736 mmHg 74%
    22:00 +14°C° 0 mm 1 mps 736 mmHg 75%
    23:00 +14°C° 0 mm 2 mps 736 mmHg 75%

    Tomorrow, 22 October, Tuesday

    Time Temperature Precipitation Wind Pressure Humidity
    00:00 +14°C° 0 mm 2 mps 736 mmHg 75%
    01:00 +14°C° 0 mm 1 mps 736 mmHg 75%
    02:00 +14°C° 0 mm 1 mps 737 mmHg 76%
    03:00 +13°C° 0 mm 1 mps 736 mmHg 76%
    04:00 +13°C° 0 mm 1 mps 736 mmHg 77%
    05:00 +13°C° 0 mm 1 mps 736 mmHg 77%
    06:00 +13°C° 0 mm 1 mps 736 mmHg 77%
    07:00 +13°C° 0 mm 1 mps 737 mmHg 77%
    08:00 +14°C° 0 mm 1 mps 737 mmHg 76%
    09:00 +16°C° 0 mm 1 mps 737 mmHg 69%
    10:00 +19°C° 0 mm 1 mps 737 mmHg 62%
    11:00 +22°C° 0 mm 1 mps 738 mmHg 54%
    12:00 +22°C° 0 mm 1 mps 738 mmHg 53%
    13:00 +23°C° 0 mm 1 mps 737 mmHg 51%
    14:00 +24°C° 0 mm 1 mps 737 mmHg 49%
    15:00 +23°C° 0 mm 1 mps 737 mmHg 56%
    16:00 +21°C° 0 mm 1 mps 737 mmHg 62%
    17:00 +20°C° 0 mm 1 mps 736 mmHg 68%
    18:00 +18°C° 0 mm 1 mps 737 mmHg 72%
    19:00 +16°C° 0 mm 1 mps 737 mmHg 76%
    20:00 +15°C° 0 mm 1 mps 737 mmHg 80%
    21:00 +15°C° 0 mm 1 mps 737 mmHg 81%
    22:00 +14°C° 0 mm 1 mps 737 mmHg 82%
    23:00 +14°C° 0 mm 1 mps 736 mmHg 83%

    Day after tomorrow, 23 October, Wednesday

    Time Temperature Precipitation Wind Pressure Humidity
    00:00 +14°C° 0 mm 1 mps 736 mmHg 83%
    01:00 +14°C° 0 mm 1 mps 736 mmHg 83%
    02:00 +13°C° 0 mm 1 mps 736 mmHg 82%
    03:00 +13°C° 0 mm 1 mps 736 mmHg 83%
    04:00 +13°C° 0 mm 1 mps 736 mmHg 83%
    05:00 +13°C° 0 mm 1 mps 736 mmHg 83%
    06:00 +13°C° 0 mm 1 mps 736 mmHg 82%
    07:00 +13°C° 0 mm 1 mps 736 mmHg 81%
    08:00 +14°C° 0 mm 1 mps 736 mmHg 80%
    09:00 +16°C° 0 mm 1 mps 736 mmHg 74%
    10:00 +17°C° 0 mm 0 mps 736 mmHg 67%
    11:00 +19°C° 0 mm 0 mps 736 mmHg 60%
    12:00 +21°C° 0 mm 1 mps 736 mmHg 59%
    13:00 +22°C° 0 mm 1 mps 736 mmHg 57%
    14:00 +23°C° 0 mm 1 mps 736 mmHg 55%
    15:00 +21°C° 0 mm 1 mps 736 mmHg 62%
    16:00 +20°C° 0 mm 1 mps 735 mmHg 69%
    17:00 +18°C° 0 mm 1 mps 735 mmHg 76%
    18:00 +16°C° 0 mm 1 mps 735 mmHg 80%
    19:00 +15°C° 0 mm 1 mps 735 mmHg 83%
    20:00 +15°C° 0 mm 1 mps 735 mmHg 87%
    21:00 +14°C° 0 mm 1 mps 735 mmHg 87%
    22:00 +14°C° 0 mm 1 mps 735 mmHg 87%
    23:00 +14°C° 0 mm 1 mps 735 mmHg 87%

    24 October, Thursday

    Time Temperature Precipitation Wind Pressure Humidity
    00:00 +13°C° 0 mm 1 mps 735 mmHg 87%
    01:00 +13°C° 0 mm 1 mps 735 mmHg 86%
    02:00 +13°C° 0 mm 1 mps 734 mmHg 85%
    03:00 +13°C° 0 mm 1 mps 734 mmHg 85%
    04:00 +13°C° 0 mm 1 mps 734 mmHg 84%
    05:00 +12°C° 0 mm 2 mps 734 mmHg 83%
    06:00 +12°C° 0 mm 2 mps 734 mmHg 82%
    07:00 +13°C° 0 mm 2 mps 734 mmHg 80%
    08:00 +13°C° 0 mm 2 mps 733 mmHg 78%
    09:00 +15°C° 0 mm 2 mps 734 mmHg 70%
    10:00 +18°C° 0 mm 2 mps 734 mmHg 61%
    11:00 +20°C° 0 mm 2 mps 734 mmHg 53%
    12:00 +21°C° 0 mm 2 mps 734 mmHg 50%
    13:00 +23°C° 0 mm 2 mps 734 mmHg 47%
    14:00 +25°C° 0 mm 2 mps 733 mmHg 44%
    15:00 +23°C° 0 mm 2 mps 733 mmHg 50%
    16:00 +20°C° 0 mm 2 mps 733 mmHg 57%
    17:00 +18°C° 0 mm 2 mps 732 mmHg 64%
    18:00 +17°C° 0 mm 2 mps 732 mmHg 66%
    19:00 +16°C° 0 mm 2 mps 733 mmHg 68%
    20:00 +15°C° 0 mm 2 mps 733 mmHg 70%
    21:00 +15°C° 0 mm 2 mps 733 mmHg 69%
    22:00 +14°C° 0 mm 2 mps 733 mmHg 69%
    23:00 +14°C° 0 mm 2 mps 733 mmHg 68%

    25 October, Friday

    Time Temperature Precipitation Wind Pressure Humidity
    00:00 +14°C° 0 mm 2 mps 733 mmHg 67%
    01:00 +14°C° 0 mm 2 mps 733 mmHg 66%
    02:00 +13°C° 0 mm 2 mps 733 mmHg 64%
    03:00 +13°C° 0 mm 2 mps 733 mmHg 65%
    04:00 +13°C° 0 mm 1 mps 733 mmHg 65%
    05:00 +13°C° 0 mm 1 mps 733 mmHg 65%
    06:00 +13°C° 0 mm 1 mps 734 mmHg 66%
    07:00 +13°C° 0 mm 1 mps 734 mmHg 66%
    08:00 +13°C° 0 mm 1 mps 734 mmHg 66%
    09:00 +15°C° 0 mm 1 mps 735 mmHg 60%
    10:00 +19°C° 0 mm 1 mps 735 mmHg 53%
    11:00 +21°C° 0 mm 1 mps 736 mmHg 47%
    12:00 +22°C° 0 mm 1 mps 736 mmHg 46%
    13:00 +22°C° 0 mm 1 mps 736 mmHg 45%
    14:00 +23°C° 0 mm 2 mps 736 mmHg 44%
    15:00 +21°C° 0 mm 1 mps 736 mmHg 52%
    16:00 +19°C° 0 mm 1 mps 736 mmHg 59%
    17:00 +18°C° 0 mm 1 mps 736 mmHg 67%
    18:00 +16°C° 0 mm 1 mps 736 mmHg 70%
    19:00 +14°C° 0 mm 0 mps 736 mmHg 72%
    20:00 +13°C° 0 mm 0 mps 737 mmHg 75%
    21:00 +12°C° 0 mm 0 mps 737 mmHg 77%
    22:00 +12°C° 0 mm 0 mps 737 mmHg 78%
    23:00 +13°C° 0 mm 1 mps 737 mmHg 79%

    26 October, Saturday

    Time Temperature Precipitation Wind Pressure Humidity
    00:00 +11°C° 0 mm 0 mps 737 mmHg 81%
    01:00 +11°C° 0 mm 0 mps 737 mmHg 83%
    02:00 +10°C° 0 mm 0 mps 738 mmHg 85%
    03:00 +10°C° 0 mm 0 mps 737 mmHg 85%
    04:00 +10°C° 0 mm 0 mps 737 mmHg 86%
    05:00 +10°C° 0 mm 0 mps 737 mmHg 87%
    06:00 +10°C° 0 mm 0 mps 737 mmHg 87%
    07:00 +10°C° 0 mm 0 mps 737 mmHg 87%
    08:00 +10°C° 0 mm 0 mps 738 mmHg 87%
    09:00 +12°C° 0 mm 0 mps 738 mmHg 79%
    10:00 +15°C° 0 mm 1 mps 738 mmHg 71%
    11:00 +18°C° 0 mm 1 mps 738 mmHg 64%
    12:00 +19°C° 0 mm 1 mps 738 mmHg 59%
    13:00 +20°C° 0 mm 1 mps 737 mmHg 55%
    14:00 +22°C° 0 mm 1 mps 737 mmHg 50%
    15:00 +20°C° 0 mm 1 mps 737 mmHg 57%
    16:00 +18°C° 0 mm 1 mps 736 mmHg 63%
    17:00 +16°C° 0 mm 1 mps 736 mmHg 70%
    18:00 +15°C° 0 mm 1 mps 736 mmHg 72%
    19:00 +14°C° 0 mm 1 mps 736 mmHg 75%
    20:00 +13°C° 0 mm 1 mps 736 mmHg 78%
    21:00 +13°C° 0 mm 1 mps 736 mmHg 78%
    22:00 +12°C° 0 mm 1 mps 736 mmHg 77%
    23:00 +12°C° 0 mm 2 mps 736 mmHg 77%

    27 October, Sunday

    Time Temperature Precipitation Wind Pressure Humidity
    00:00 +12°C° 0 mm 1 mps 736 mmHg 77%
    01:00 +12°C° 0 mm 1 mps 736 mmHg 76%
    02:00 +11°C° 0 mm 1 mps 735 mmHg 75%
    03:00 +11°C° 0 mm 1 mps 735 mmHg 76%
    04:00 +11°C° 0 mm 1 mps 735 mmHg 76%
    05:00 +11°C° 0 mm 1 mps 735 mmHg 77%
    06:00 +11°C° 0 mm 1 mps 735 mmHg 77%
    07:00 +11°C° 0 mm 1 mps 735 mmHg 77%
    08:00 +11°C° 0 mm 1 mps 736 mmHg 77%
    09:00 +14°C° 0 mm 1 mps 736 mmHg 69%
    10:00 +16°C° 0 mm 1 mps 736 mmHg 62%
    11:00 +19°C° 0 mm 1 mps 736 mmHg 54%
    12:00 +20°C° 0 mm 1 mps 736 mmHg 52%
    13:00 +21°C° 0 mm 1 mps 736 mmHg 50%
    14:00 +20°C° 0 mm 2 mps 735 mmHg 48%
    15:00 +20°C° 0 mm 1 mps 735 mmHg 55%
    16:00 +18°C° 0 mm 1 mps 735 mmHg 62%
    17:00 +16°C° 0 mm 1 mps 734 mmHg 68%
    18:00 +15°C° 0 mm 1 mps 734 mmHg 73%
    19:00 +14°C° 0 mm 1 mps 734 mmHg 77%
    20:00 +13°C° 0 mm 1 mps 734 mmHg 81%
    21:00 +12°C° 0 mm 1 mps 735 mmHg 82%
    22:00 +12°C° 0 mm 1 mps 735 mmHg 83%
    23:00 +12°C° 0 mm 1 mps 735 mmHg 84%
    Show more